User: anonymous   Login
Location: Bergnershof
(48.9468°N, 10.9431°E)
Time: 20:33:16
(UTC+00:00)
Language:

Cosmos 1844 Rocket - Orbit

View from above orbital plane
View from above orbital plane
View from above satellite
View from above satellite

Ground track
Ground track

The orbit data is extracted from the following two-line orbital elements,

1 17974U 87041B   21136.45180811 -.00000166  00000-0 -58213-4 0  9997
2 17974  71.0045 138.4348 0013628   1.4310 107.7128 14.17274164758954
Epoch (UTC): 16 May 2021 10:50:36
Eccentricity: 0.0013628
inclination: 71.0045°
perigee height: 825 km
apogee height: 844 km
right ascension of ascending node: 138.4348°
argument of perigee: 1.4310°
revolutions per day: 14.17274164
mean anomaly at epoch: 107.7128°
orbit number at epoch: 75895

The dashed part of the orbit path shows where the satellite is in the earth's shadow,  

DLR